エルスト-ピサロ彗星

133P/(7968) Elst-Pizarro (2013)

English version
Home page
Updated on May 15, 2012

---------------------------------------------------------------------

・ プロフィール

・ 写真集

・ 軌道要素

Epoch 2013 Jan. 28.0 TT = JDT 2456320.5
T 2013 Feb. 8.98133 TT                                  MPC
q   2.6499754            (2000.0)            P               Q
n   0.17540297     Peri.  132.16275     +0.37972523     +0.92506282
a   3.1606622      Node   160.14935     -0.85573833     +0.35461576
e   0.1615759      Incl.    1.38680     -0.35145508     +0.13603842
P   5.62
From 458 observations 1979 July 24-2011 Feb. 12, mean residual 0".5.

・ 光度変化

        H = 15.5  G = 0.15

---------------------------------------------------------------------

軌道要素はM.P.E.C. 2011-D36に掲載されたものです。
光度グラフはComet for Windowsで作成したものです。

---------------------------------------------------------------------

Copyright(C) Seiichi Yoshida (comet@aerith.net). All rights reserved.